Preview of NWS' New Version of Forecast
This preview is not operational and should not be used for support decisions.

Regional Weather Roundup (RWR)

Issued by National Weather Service (NWS)

                            
000
ASUS44 KMEG 211810
RWRTN 
TENNESSEE HOURLY STATE WEATHER ROUNDUP
NATIONAL WEATHER SERVICE MEMPHIS TN
100 PM CDT SUN JUL 21 2019

TNZ002-004-019-021-049-052-054-088>092-211900-
WEST TENNESSEE
  
CITY           SKY/WX    TMP DP  RH WIND       PRES   REMARKS
MEMPHIS INTL   PTSUNNY   92  77  61 SW7       29.98F HX 105           
NWS MEMPHIS      N/A     89 N/A N/A MISG        N/A                   
JACKSON        CLOUDY    83  76  79 S6        30.02F HX  91           
DYERSBURG      CLOUDY    86  78  77 VRB3      29.99F HX  98           
SOMERVILLE     MOSUNNY   86  77  74 CALM      29.99F HX  97           
COVINGTON      PTSUNNY   86  79  79 SE8       29.98F HX  99           
UNION CITY     PTSUNNY   86  79  79 S8        29.96F HX  99           
BOLIVAR        PTSUNNY   81  75  83 VRB5      30.01F                  
PARIS          PTSUNNY   86  77  74 SW8       29.99F HX  97           
HUNTINGDON     PTSUNNY   88  77  70 SW9       29.99F HX 100           
LEXINGTON      MOSUNNY   86  75  70 VRB6      30.00F HX  95           
SELMER           N/A     81  75  83 SW5       30.02F                  
SAVANNAH       PTSUNNY   86  77  74 SW8       30.01F HX  97           
$$

TNZ008-025-027-028-033-062-065-066-211900-
NORTH MIDDLE TENNESSEE
  
CITY           SKY/WX    TMP DP  RH WIND       PRES   REMARKS
NASHVILLE      PTSUNNY   81  74  79 S9        30.04S                  
PORTLAND       CLOUDY    79  75  89 SW7G13    30.03S                  
CLARKSVILLE    FAIR      86  77  74 VRB5      30.00S HX  97           
LEBANON        MOCLDY    82  75  78 SW8       30.01F                  
SMYRNA         CLOUDY    81  75  82 SW6       30.04F                  
MURFREESBORO   CLOUDY    81  73  78 SW8       30.03S                  
COOKEVILLE     MOSUNNY   86  75  70 SW8       30.04F HX  95           
LIVINGSTON     PTCLDY    82  73  74 VRB7      30.05F                  
GALLATIN       CLOUDY    81  75  83 VRB5      30.05F                  
CROSSVILLE     FAIR      81  70  69 W8        30.10F                  
ROCKWOOD       MOCLDY    79  73  83 VRB5      30.08F                  
$$

TNZ061-075-076-078-094-096-097-211900-
SOUTH MIDDLE TENNESSEE
  
CITY           SKY/WX    TMP DP  RH WIND       PRES   REMARKS
LAWRENCEBURG   MOCLDY    82  73  74 VRB6      30.04F                  
LEWISBURG      MOCLDY    82  73  74 CALM      30.04F                  
FAYETTEVILLE   MOSUNNY   84  73  70 SW8       30.05F HX  91           
TULLAHOMA      PTSUNNY   82  73  74 S3        30.05F                  
WINCHESTER     MOSUNNY   84  72  65 S5        30.06S                  
MCMINNVILLE    PTSUNNY   82  73  74 SW8       30.05F                  
COLUMBIA       MOSUNNY   82  81  94 SE8       30.01F HX  95           
SHELBYVILLE    PTSUNNY   81  75  83 W5        30.04F                  
$$

TNZ017-018-042-046-047-211900-
NORTHEAST TENNESSEE
  
CITY           SKY/WX    TMP DP  RH WIND       PRES   REMARKS
TRI CITIES     PTSUNNY   86  70  58 W7        30.07F HX  90           
ELIZABETHTON   FAIR      84  72  65 VRB6      30.07F                  
GREENEVILLE    PTCLDY    82  73  74 VRB5      30.08F                  
$$

TNZ012-013-036-069-073-074-211900-
CENTRAL EAST TENNESSEE
  
CITY           SKY/WX    TMP DP  RH WIND       PRES   REMARKS
KNOXVILLE      CLOUDY    87  69  54 W13G20    30.04F HX  91           
OAK RIDGE      FAIR      87  71  58 SW5       30.06F HX  93           
DOWNTOWN KNOXV SUNNY     88  73  62 SW8       30.04F HX  96           
GATLINBURG     SUNNY     86  72  62 W7G14     30.04F HX  92           
MORRISTOWN     MOSUNNY   84  73  70 VRB6      30.05F HX  91           
JACKSBORO      PTSUNNY   84  73  70 S9        30.07F HX  91           
$$

TNZ083-085-099-211900-
SOUTHEAST TENNESSEE
  
CITY           SKY/WX    TMP DP  RH WIND       PRES   REMARKS
CHATTANOOGA    PTSUNNY   88  70  55 S8        30.05F HX  93           
DAYTON         PTCLDY    86  73  66 VRB6      30.03F HX  93           
$$

SKY/WX REPORTED AS FAIR MEANS FEW OR NO CLOUDS BELOW
12 THOUSAND FEET.